Temperature
11 11 11 11 11 11 11 12 12 12 12 12 12 13 13 13 13 13 13 13 13 13 13 13 13 13 12 12 12 12 12 12 12 12 12 11 11 11 10 10 10 10 10
10 10 10 10 10 10 11 11 11 11 11 12 12 12 12 12 12 12 13 13 13 13 13 13 13 12 12 12 12 12 12 12 12 12 11 11 11 11 10 10 10 10 10
9 9 9 9 9 9 10 10 10 10 10 11 11 11 11 12 12 12 12 12 12 12 12 12 12 12 12 12 12 12 12 12 12 11 11 11 11 11 10 10 10 10 10
8 8 8 9 9 9 9 9 9 9 10 10 10 11 11 11 11 11 11 12 12 12 12 12 12 12 12 12 12 12 12 12 12 11 11 11 11 11 10 10 10 10 10
8 7 7 8 8 8 8 8 8 8 9 9 9 10 10 10 11 11 11 11 11 11 11 11 12 12 12 12 12 11 11 11 11 11 11 11 11 11 10 10 10 10 10
7 7 7 7 7 7 7 7 8 8 8 8 8 9 10 10 10 10 11 11 11 11 11 11 11 11 11 11 11 11 11 11 11 11 11 11 11 10 10 10 10 10 9
7 6 6 6 6 6 7 7 7 7 7 7 7 8 9 9 10 10 10 10 10 10 10 10 10 11 11 11 11 11 11 11 11 11 11 11 11 10 10 10 10 10 9
6 6 6 6 6 6 6 6 6 6 6 6 6 6 7 8 8 9 9 10 10 10 10 10 10 10 10 10 10 11 11 11 11 10 10 11 10 10 10 10 10 10 9
6 5 5 5 5 5 5 5 5 5 6 6 6 5 6 6 7 8 8 9 9 9 9 9 9 10 9 10 10 10 10 10 10 10 10 10 10 10 10 10 10 9 9
5 5 5 5 5 5 5 5 5 5 5 5 5 6 6 6 6 6 7 8 8 8 9 9 9 9 9 9 9 10 10 10 10 10 10 10 10 10 9 9 9 9 9
5 5 5 4 4 4 4 4 4 4 5 5 5 5 6 6 6 5 6 7 7 8 8 8 9 9 9 9 9 9 10 10 10 10 10 10 10 9 9 9 9 9 9
4 4 4 4 4 4 4 4 4 4 4 5 5 5 5 5 6 6 5 6 6 7 8 8 8 8 8 9 9 9 9 9 9 10 9 9 9 9 9 9 9 9 8
4 4 3 3 3 3 4 4 4 4 4 4 4 5 5 5 5 5 5 5 5 6 7 7 8 8 8 8 9 9 9 9 9 9 9 9 9 9 9 9 8 8 8
3 3 3 3 3 3 3 3 3 4 4 4 4 4 4 5 5 5 5 5 5 5 6 6 7 8 8 8 8 8 8 9 9 9 9 9 9 9 8 8 8 8 8
3 3 3 3 3 3 3 3 3 3 4 4 4 4 4 4 5 5 5 5 5 4 5 6 6 7 7 8 8 8 8 8 9 8 8 8 8 8 8 8 8 8 8
2 2 2 2 2 2 2 3 3 3 3 3 3 3 4 4 4 4 4 5 5 5 5 5 6 7 7 7 7 7 8 8 8 8 8 8 8 8 8 8 7 7 7
2 2 2 2 2 2 2 2 2 2 3 3 3 3 3 4 3 4 4 4 4 5 5 5 5 6 6 7 7 7 7 7 8 8 7 8 8 8 7 7 7 7 7
2 2 2 2 2 2 2 2 2 2 2 3 3 3 3 3 3 3 3 4 4 4 5 5 5 5 6 6 6 6 6 7 7 7 7 7 7 7 7 7 7 6 6
2 2 1 1 1 1 1 2 2 2 2 2 2 2 3 3 3 3 3 3 4 4 4 4 5 5 5 5 5 5 6 6 6 6 7 7 7 7 7 6 6 6 6
1 1 1 1 1 1 1 1 1 1 2 2 2 2 2 3 3 3 3 4 4 4 4 4 4 5 5 5 5 5 5 5 6 6 6 6 6 6 6 6 6 5 5
1 1 1 1 1 1 1 1 1 1 1 1 2 2 2 3 3 3 3 3 4 3 4 4 4 4 4 4 5 5 5 5 5 5 5 5 5 5 5 5 5 5 4
1 1 0 0 0 0 0 0 0 1 1 1 2 2 2 2 3 3 3 3 4 4 4 4 4 4 4 5 5 5 4 4 4 4 5 5 5 5 5 5 4 4 4
0 0 -0 -0 -0 0 0 0 0 0 0 1 1 2 2 2 2 3 3 3 3 3 4 4 4 4 5 5 5 4 4 5 5 5 4 4 4 4 4 4 4 4 3
-0 -0 -0 -1 -1 -0 -0 -0 -0 0 0 1 1 2 2 2 2 2 3 3 3 3 4 4 4 5 5 5 5 5 4 4 4 4 4 4 3 3 3 3 3 3 3
-1 -1 -1 -1 -1 -0 -0 -0 -0 -0 0 1 1 1 2 2 2 2 3 3 3 3 3 4 4 4 4 4 4 4 4 4 4 3 4 4 3 3 3 2 2 2 2
-1 -1 -1 -1 -1 -1 -0 -0 -0 -0 -0 0 1 1 1 1 2 2 3 3 3 3 3 3 3 3 3 3 3 4 4 4 4 3 3 3 3 3 2 2 2 2 2
Wind_Speed
3 3 3 4 4 5 4 3 3 4 4 4 5 5 6 8 8 8 9 14 16 18 18 18 19 19 20 20 19 19 19 18 18 17 17 16 15 14 13 12 11 11 10
3 3 4 4 4 4 4 4 4 5 5 4 6 6 7 7 8 9 9 12 16 18 19 19 19 20 20 20 20 20 20 19 19 18 18 18 17 16 15 14 12 11 10
4 3 3 4 4 6 5 4 4 4 5 5 6 7 6 7 8 9 9 10 12 16 18 19 20 20 21 21 21 21 21 21 20 19 19 19 18 17 16 15 13 12 11
5 4 4 4 6 5 4 4 4 4 5 5 6 6 6 7 8 9 9 9 10 11 15 18 19 20 20 21 21 21 21 21 21 20 19 19 18 18 17 16 15 14 12
7 4 4 5 5 4 4 5 4 4 5 6 6 6 6 7 8 8 9 9 10 10 11 14 17 18 19 20 21 22 21 21 21 21 20 19 18 18 18 17 16 15 14
7 5 5 5 5 4 4 4 5 5 5 6 8 7 7 8 7 8 9 8 8 9 10 11 12 14 17 18 20 21 21 21 21 21 20 19 19 18 18 18 17 16 15
7 6 5 5 5 5 6 6 5 6 5 4 5 6 6 7 8 7 7 7 8 8 9 10 10 10 11 16 18 20 21 21 20 20 20 19 19 19 18 18 17 16 15
8 7 6 6 6 6 6 6 5 5 5 3 3 3 4 4 5 7 7 8 8 7 8 9 9 10 10 11 14 18 20 20 20 20 19 20 19 18 17 17 17 16 16
8 8 8 7 7 6 7 7 7 7 7 5 5 4 3 4 4 4 7 8 8 7 7 7 9 10 11 11 12 15 18 19 20 20 19 20 19 18 18 16 16 16 15
9 9 9 8 8 7 8 8 8 7 7 7 6 6 6 4 3 3 4 6 8 9 9 8 9 10 12 11 12 14 17 19 20 20 20 19 19 19 18 17 15 15 14
8 9 9 8 8 8 8 9 9 8 8 9 7 5 6 6 6 6 7 6 6 7 8 9 8 8 11 11 11 14 16 18 20 20 19 19 18 18 18 16 15 14 13
7 8 8 8 9 8 9 9 10 10 10 10 9 7 7 6 6 6 8 8 8 7 7 8 8 9 9 11 13 14 16 18 19 19 18 17 16 16 17 15 14 13 12
7 9 9 8 8 9 10 10 10 10 11 11 10 9 8 9 7 6 7 7 7 6 5 7 8 9 9 10 10 14 15 17 17 18 16 15 14 14 14 14 13 12 11
9 9 9 10 10 10 11 10 10 11 10 10 12 10 9 8 8 8 7 7 7 7 5 6 5 9 9 9 10 13 12 16 17 16 16 15 14 14 14 13 12 11 10
9 10 10 10 10 10 11 11 10 11 10 10 10 11 10 9 8 8 8 8 8 9 9 6 5 6 8 8 10 11 10 14 16 16 15 15 14 14 13 12 11 10 9
10 10 11 11 10 10 11 11 11 11 11 11 9 11 11 9 8 8 8 8 8 8 10 7 6 5 7 7 10 9 10 12 14 15 15 15 14 14 13 12 10 10 9
10 10 10 10 11 11 10 10 12 12 12 12 11 12 13 11 9 8 8 8 8 7 9 8 6 5 6 7 6 6 7 8 9 14 15 15 14 13 12 12 11 10 9
9 10 10 10 11 11 10 11 12 12 13 13 12 12 13 11 11 9 9 10 9 8 8 10 7 5 6 6 6 5 5 6 6 11 14 13 13 13 13 12 11 10 9
10 9 10 11 11 11 10 11 11 12 12 13 13 13 13 12 12 9 10 10 9 9 7 8 8 5 4 4 4 4 4 4 5 8 11 12 12 13 12 12 11 10 9
9 9 10 10 11 11 11 11 12 12 12 12 12 13 13 13 13 11 11 11 9 9 8 7 7 5 4 4 4 4 4 3 3 3 5 7 9 10 11 11 11 9 9
9 8 9 10 10 10 10 10 10 11 11 11 11 12 12 14 16 13 12 10 10 9 8 8 7 6 5 5 5 4 4 2 1 2 4 4 5 5 6 9 9 9 9
8 8 9 10 10 10 14 15 12 9 10 11 11 10 11 13 16 18 19 16 14 12 11 9 8 8 8 7 5 5 4 3 3 3 4 3 3 3 3 4 8 9 9
8 9 9 9 10 11 15 15 14 10 9 10 10 10 9 10 13 11 13 15 14 16 15 11 11 10 9 8 7 6 6 5 3 4 4 3 2 3 2 3 8 9 9
8 8 9 9 9 11 15 15 15 10 9 10 10 10 10 9 10 11 9 9 9 10 11 9 9 9 8 7 8 7 6 4 2 1 3 3 2 2 2 2 6 8 8
8 8 8 9 9 10 14 14 14 8 8 9 9 9 9 8 11 11 9 8 8 7 7 9 9 8 9 9 8 6 6 6 3 2 2 3 3 2 2 1 3 7 8
8 8 8 7 8 9 13 14 13 7 7 8 7 7 9 9 10 9 8 8 8 6 5 4 4 4 5 7 9 8 8 7 4 2 3 4 4 3 2 1 1 2 3
Wind_Direction
305 314 317 320 318 317 307 297 290 288 281 269 262 252 244 232 228 230 232 231 230 231 231 228 226 224 221 219 216 215 213 214 214 215 215 215 216 219 223 227 229 231 234
306 295 305 305 304 311 300 278 275 274 271 268 264 256 250 242 234 233 234 234 233 232 232 232 231 230 227 224 221 218 215 215 216 217 218 219 219 222 224 228 228 230 233
297 290 285 293 299 307 305 291 281 272 274 269 267 260 253 246 242 237 235 232 233 234 234 234 234 234 232 229 225 222 219 218 218 219 220 220 221 223 225 227 228 230 233
289 286 274 280 294 299 293 286 276 276 276 271 268 265 259 251 243 237 235 233 232 234 234 236 236 237 237 234 230 228 225 222 220 221 222 222 222 222 222 224 228 229 233
286 278 265 275 292 284 276 287 284 265 273 280 272 265 261 251 246 237 232 230 232 234 232 234 235 238 238 237 236 233 229 226 224 223 223 222 223 225 224 224 225 228 232
289 278 267 266 272 270 271 274 280 274 262 272 279 272 263 256 245 237 230 227 228 230 233 235 231 234 237 238 239 238 234 231 227 225 224 224 225 226 228 227 225 227 231
279 272 269 263 259 257 259 263 272 274 271 270 281 282 273 256 244 236 227 223 225 227 232 235 234 232 234 236 238 239 238 235 231 228 225 225 226 226 229 227 225 227 230
273 277 263 260 257 260 261 258 261 263 270 255 253 275 288 280 249 239 229 224 224 223 229 235 235 232 233 231 236 240 239 239 236 233 228 226 226 227 227 228 228 229 231
269 267 262 257 253 250 255 255 247 253 259 254 228 230 244 254 292 247 229 228 225 226 227 229 232 234 235 233 233 233 234 238 239 234 231 227 225 226 228 228 231 232 234
267 264 260 254 252 251 250 252 248 249 244 253 250 238 238 237 252 278 253 232 231 231 228 233 232 232 233 231 232 233 231 232 236 237 235 231 228 227 227 228 232 234 233
267 264 259 254 251 250 251 250 249 248 241 242 250 252 254 250 237 248 267 256 247 235 229 228 229 231 232 228 228 231 233 231 234 237 237 233 231 228 227 228 230 233 232
269 263 264 257 252 250 250 249 246 246 245 243 247 244 242 244 238 238 252 252 253 252 240 232 230 231 229 226 229 232 232 231 231 233 234 233 233 232 229 226 226 230 229
274 266 266 260 255 250 250 250 247 247 245 242 242 245 243 244 248 249 252 258 265 270 254 243 228 228 233 228 227 230 231 229 228 229 229 227 227 228 227 221 221 224 228
271 268 263 260 257 254 254 251 248 247 247 243 246 245 249 245 242 243 244 249 265 273 262 253 241 226 229 227 229 227 229 228 227 227 224 220 219 218 218 215 215 217 220
273 268 263 261 259 255 252 252 250 249 248 244 244 243 246 249 242 242 241 233 237 260 262 254 248 229 224 226 229 224 226 229 228 225 219 215 213 210 209 206 206 208 211
272 273 268 264 263 261 257 255 254 250 251 249 247 245 245 244 241 239 237 240 234 241 259 252 252 254 238 242 235 225 227 232 224 220 217 210 206 203 200 197 199 201 204
272 272 271 267 266 264 261 259 256 252 252 251 249 247 245 240 238 238 234 236 236 233 251 265 256 251 243 236 237 228 225 222 219 218 215 208 201 196 194 191 193 195 197
270 268 273 270 269 267 262 259 258 255 252 248 247 247 246 241 237 235 236 235 235 232 238 255 258 251 252 232 227 230 239 231 217 213 209 203 197 193 189 189 187 188 190
275 269 271 271 269 267 265 262 260 257 252 248 245 244 243 237 239 237 237 237 235 237 233 240 251 251 254 233 228 245 245 243 223 205 199 194 187 185 183 180 177 177 178
275 272 269 271 270 269 267 266 263 260 257 253 247 243 240 235 237 236 237 233 230 231 228 230 242 242 245 231 214 226 247 238 215 194 180 176 175 179 180 176 173 172 173
276 273 274 276 274 270 267 268 263 261 259 257 252 245 242 241 240 240 241 229 223 229 225 224 233 238 230 219 215 220 229 210 195 177 160 166 165 176 180 176 171 170 171
280 278 276 278 280 280 282 284 279 268 263 259 256 252 247 245 246 245 246 239 229 226 223 222 230 229 229 219 205 206 200 195 226 175 158 161 152 171 184 178 168 170 171
283 282 280 279 280 283 288 286 283 278 266 261 257 254 256 249 245 241 244 244 240 235 227 222 222 227 224 211 194 203 209 194 203 172 152 161 155 177 171 162 159 164 165
285 282 283 282 283 286 292 289 288 278 269 264 260 254 251 251 246 234 231 233 233 232 227 225 223 226 221 204 196 201 191 161 116 136 145 155 149 141 122 135 146 149 153
294 288 284 283 282 286 290 291 289 278 272 268 264 257 251 248 250 236 227 225 226 225 225 222 224 216 204 198 187 170 170 165 174 199 154 144 141 111 90 103 128 137 143
294 294 294 290 285 284 288 291 291 278 274 272 270 260 256 255 245 236 224 216 217 214 200 204 198 192 189 186 188 189 184 180 171 181 174 142 144 137 120 35 104 116 126
Height
1478 1478 1477 1477 1476 1476 1476 1476 1476 1476 1476 1476 1477 1478 1478 1479 1480 1481 1482 1483 1484 1486 1487 1488 1489 1490 1491 1492 1492 1493 1494 1495 1496 1496 1497 1498 1499 1499 1500 1500 1500 1500 1500
1474 1474 1473 1472 1472 1471 1471 1471 1471 1471 1471 1471 1472 1472 1473 1474 1474 1475 1476 1477 1479 1480 1481 1483 1484 1485 1486 1487 1488 1489 1490 1491 1492 1492 1493 1494 1495 1496 1496 1497 1497 1497 1497
1471 1469 1469 1468 1467 1467 1467 1466 1466 1466 1466 1466 1466 1466 1467 1467 1468 1469 1470 1471 1473 1474 1475 1477 1478 1480 1481 1482 1483 1484 1485 1486 1487 1488 1489 1490 1490 1492 1492 1493 1493 1493 1494
1467 1465 1464 1463 1463 1463 1462 1462 1461 1461 1460 1460 1460 1460 1461 1461 1462 1462 1464 1465 1466 1468 1469 1470 1472 1474 1475 1477 1478 1479 1480 1481 1482 1483 1484 1485 1486 1487 1488 1489 1489 1490 1490
1463 1461 1460 1459 1459 1458 1458 1457 1456 1456 1455 1454 1454 1454 1454 1454 1455 1456 1457 1458 1460 1461 1463 1464 1465 1467 1469 1471 1472 1474 1475 1475 1477 1478 1479 1481 1482 1482 1483 1484 1485 1485 1485
1459 1457 1455 1454 1454 1453 1452 1452 1452 1451 1450 1450 1449 1448 1448 1448 1448 1449 1450 1451 1453 1454 1456 1457 1459 1461 1463 1464 1466 1468 1470 1470 1471 1473 1474 1475 1477 1477 1478 1479 1480 1480 1481
1454 1452 1450 1449 1449 1448 1447 1447 1446 1445 1445 1445 1444 1442 1441 1442 1441 1442 1443 1445 1446 1448 1449 1451 1452 1454 1456 1458 1460 1462 1464 1465 1466 1467 1468 1469 1471 1472 1473 1474 1475 1475 1476
1449 1447 1446 1444 1443 1442 1442 1442 1441 1440 1439 1440 1440 1439 1436 1435 1434 1435 1437 1438 1440 1441 1443 1444 1446 1447 1449 1451 1453 1456 1458 1459 1460 1461 1462 1463 1465 1467 1468 1468 1470 1470 1471
1444 1442 1441 1439 1438 1437 1436 1436 1436 1435 1434 1435 1436 1436 1434 1431 1429 1428 1429 1431 1433 1434 1436 1438 1439 1441 1443 1444 1446 1448 1451 1453 1454 1455 1456 1458 1459 1461 1462 1464 1465 1465 1466
1438 1436 1435 1433 1432 1431 1430 1430 1430 1430 1429 1428 1429 1430 1430 1428 1428 1423 1423 1425 1427 1428 1429 1431 1432 1434 1436 1438 1439 1441 1444 1446 1448 1449 1451 1452 1454 1455 1457 1458 1459 1460 1460
1431 1430 1428 1426 1425 1424 1423 1423 1423 1423 1423 1422 1422 1422 1422 1423 1422 1422 1418 1417 1419 1421 1422 1424 1425 1427 1429 1431 1432 1434 1437 1439 1441 1443 1444 1446 1447 1449 1451 1452 1454 1455 1455
1424 1423 1421 1420 1418 1417 1416 1416 1415 1416 1416 1415 1415 1415 1416 1416 1415 1415 1414 1412 1412 1413 1415 1417 1418 1420 1422 1424 1425 1428 1430 1432 1434 1436 1438 1439 1441 1443 1445 1446 1448 1449 1449
1417 1415 1413 1412 1410 1409 1409 1408 1408 1407 1408 1407 1408 1408 1408 1409 1410 1410 1410 1408 1407 1407 1408 1409 1411 1413 1415 1417 1418 1420 1423 1425 1427 1429 1431 1433 1435 1437 1439 1440 1442 1443 1444
1410 1408 1406 1404 1403 1402 1401 1401 1400 1399 1399 1399 1399 1400 1401 1401 1403 1404 1404 1404 1402 1401 1400 1401 1404 1406 1408 1410 1412 1414 1415 1418 1420 1422 1424 1426 1428 1431 1432 1434 1436 1437 1438
1403 1400 1398 1396 1395 1394 1393 1393 1392 1391 1391 1391 1391 1392 1393 1393 1395 1397 1398 1399 1399 1396 1393 1394 1397 1399 1401 1403 1405 1407 1408 1411 1413 1415 1417 1420 1422 1424 1426 1428 1430 1431 1432
1396 1393 1390 1389 1387 1386 1385 1384 1384 1383 1383 1383 1383 1384 1384 1385 1387 1389 1390 1391 1392 1392 1389 1388 1391 1393 1395 1396 1398 1400 1402 1404 1406 1408 1410 1413 1416 1418 1420 1422 1425 1426 1427
1389 1386 1384 1381 1380 1378 1377 1376 1375 1375 1374 1374 1375 1375 1375 1377 1379 1381 1383 1384 1385 1386 1384 1383 1386 1387 1389 1390 1391 1394 1396 1397 1398 1401 1404 1407 1409 1411 1414 1417 1419 1420 1422
1382 1380 1377 1375 1373 1371 1369 1368 1367 1366 1366 1365 1366 1367 1367 1369 1370 1373 1374 1376 1377 1379 1379 1378 1379 1381 1382 1384 1385 1387 1389 1390 1392 1395 1397 1400 1403 1406 1408 1411 1413 1415 1417
1376 1373 1371 1367 1365 1363 1361 1360 1359 1358 1357 1357 1357 1358 1359 1361 1362 1364 1366 1368 1370 1372 1373 1373 1373 1375 1377 1379 1380 1381 1383 1384 1386 1389 1391 1394 1397 1400 1403 1405 1408 1410 1411
1368 1365 1363 1361 1358 1355 1353 1352 1351 1350 1349 1348 1349 1349 1350 1352 1354 1356 1358 1360 1363 1365 1366 1367 1368 1369 1371 1373 1375 1375 1377 1379 1380 1383 1386 1389 1392 1395 1398 1400 1403 1405 1407
1362 1359 1356 1353 1351 1348 1346 1345 1344 1342 1342 1341 1341 1341 1342 1344 1346 1349 1351 1352 1355 1357 1359 1360 1362 1363 1365 1367 1368 1371 1372 1373 1375 1378 1381 1384 1388 1391 1393 1396 1398 1400 1403
1356 1353 1350 1347 1344 1341 1340 1339 1338 1336 1335 1334 1333 1334 1335 1336 1338 1341 1343 1345 1348 1350 1351 1354 1355 1357 1358 1361 1363 1366 1368 1369 1370 1374 1377 1380 1384 1387 1389 1392 1394 1397 1399
1350 1346 1344 1341 1338 1336 1334 1333 1332 1331 1329 1328 1327 1327 1327 1329 1331 1333 1335 1338 1340 1343 1345 1348 1348 1350 1352 1354 1358 1360 1363 1364 1366 1369 1374 1376 1380 1383 1386 1388 1391 1393 1396
1344 1341 1338 1335 1332 1330 1328 1327 1326 1324 1322 1321 1321 1321 1321 1322 1324 1326 1328 1330 1332 1335 1338 1341 1342 1344 1347 1350 1353 1356 1358 1361 1363 1367 1370 1373 1377 1380 1383 1385 1388 1390 1393
1339 1336 1333 1330 1327 1324 1323 1321 1320 1318 1316 1315 1315 1315 1315 1316 1317 1319 1321 1323 1325 1327 1331 1333 1336 1338 1341 1345 1349 1352 1354 1357 1359 1362 1366 1370 1373 1377 1380 1383 1385 1388 1390
1336 1332 1329 1326 1323 1320 1318 1316 1315 1313 1311 1310 1309 1309 1309 1310 1311 1313 1315 1317 1319 1321 1324 1327 1329 1333 1336 1340 1344 1347 1350 1353 1355 1359 1362 1366 1370 1373 1378 1381 1383 1385 1388